[[[{"header":{"parameterUnit":"kt","parameterCategory":2,"dx":1,"dy":1,"la1":30.253999710083008,"la2":30.299108505249023,"lo1":-89.0895004272461,"lo2":-89.04439544677734,"nx":28,"ny":28,"refTime":"2022-10-25T21:00:00:Z","depth":0,"parameterNumber":1,"parameterNumberName":"U-component_of_WINDS"},"data":[-0.1018,-0.1023,-0.1017,-0.102,-0.1015,-0.1016,-0.1015,-0.1012,-0.1008,-0.1007,-0.1006,-0.1,-0.0993,-0.0989,-0.0987,-0.0984,-0.0984,-0.0989,-0.0985,-0.0967,-0.0965,-0.0962,-0.0961,-0.0989,-0.0989,-0.1005,-0.1005,-0.1005,-0.1002,-0.0997,-0.0998,-0.0994,-0.0994,-0.0985,-0.0981,-0.0981,-0.0982,-0.0978,-0.0977,-0.0976,-0.0974,-0.0966,-0.0963,-0.0964,-0.096,-0.0964,-0.0964,-0.0963,-0.0944,-0.0943,-0.0967,-0.0967,-0.0967,-0.0967,-0.0967,-0.0967,-0.0971,-0.0975,-0.097,-0.097,-0.0967,-0.0965,-0.0967,-0.0961,-0.0961,-0.0958,-0.0952,-0.0953,-0.0947,-0.0942,-0.0938,-0.0938,-0.0933,-0.0936,-0.0936,-0.0937,-0.0939,-0.0916,-0.0937,-0.0937,-0.0937,-0.0937,-0.0937,0,-0.0948,-0.0943,-0.0944,-0.0942,-0.0942,-0.0941,-0.0939,-0.094,-0.0928,-0.0929,-0.0929,-0.0928,-0.0926,-0.0925,-0.0922,-0.0918,-0.091,-0.0909,-0.091,-0.0914,-0.0917,-0.0915,-0.0884,-0.0909,-0.0908,-0.0908,-0.0908,-0.0908,-0.0917,-0.0922,-0.0915,-0.0916,-0.0914,-0.0916,-0.0916,-0.0906,-0.0906,-0.0902,-0.0905,-0.0905,-0.0904,-0.0905,-0.0898,-0.0896,-0.0893,-0.0902,-0.0893,-0.0895,-0.0893,-0.0893,-0.0893,-0.0905,-0.0905,-0.0906,-0.0906,0,-0.09,-0.0892,-0.0899,-0.0892,-0.089,-0.0896,-0.089,-0.0893,-0.0887,-0.0891,-0.0891,-0.0882,-0.0883,-0.0874,-0.0874,-0.0869,-0.0876,-0.0873,-0.0878,-0.0877,-0.0885,-0.0884,-0.0912,-0.0915,-0.0886,-0.0886,-0.0887,0,-0.0871,-0.0879,-0.0867,-0.0871,-0.0879,-0.0869,-0.0877,-0.0873,-0.087,-0.0872,-0.0862,-0.0865,-0.0854,-0.0855,-0.0849,-0.0853,-0.0853,-0.085,-0.0849,-0.0852,-0.0852,-0.0853,-0.0852,-0.0845,-0.0845,-0.0845,-0.0845,0,-0.0846,-0.0849,-0.0856,-0.0856,-0.085,-0.0854,-0.0851,-0.0848,-0.0848,-0.0847,-0.0848,-0.0847,-0.0847,-0.0846,-0.0839,-0.0832,-0.0844,-0.0834,-0.0841,-0.0842,-0.0846,-0.0846,-0.0872,-0.0845,-0.0845,-0.0845,-0.0845,0,-0.0822,-0.0823,-0.0835,-0.0829,-0.0831,-0.0836,-0.0835,-0.0838,-0.0835,-0.0831,-0.0831,-0.0824,-0.0828,-0.0818,-0.0823,-0.0817,-0.0817,-0.0814,-0.0815,-0.0816,-0.0805,-0.0821,-0.0846,-0.0849,-0.0814,-0.0814,-0.0814,0,-0.0795,-0.0806,-0.0799,-0.0811,-0.0815,-0.0803,-0.0808,-0.0807,-0.0803,-0.0805,-0.0801,-0.0804,-0.0795,-0.0795,-0.0798,-0.0794,-0.0802,-0.0793,-0.0795,-0.0795,-0.0797,-0.0819,-0.0826,-0.0841,-0.081,-0.0811,-0.0811,0,-0.0774,-0.0769,-0.0772,-0.0771,-0.0769,-0.0772,-0.0778,-0.078,-0.0782,-0.0781,-0.0786,-0.079,-0.0783,-0.0784,-0.0779,-0.0783,-0.0796,-0.0776,-0.0775,-0.0779,-0.0808,-0.0814,-0.0817,-0.0791,-0.0792,-0.0792,-0.0808,0,-0.074,-0.0745,-0.0752,-0.0753,-0.0755,-0.0762,-0.0756,-0.0758,-0.0753,-0.075,-0.0757,-0.0755,-0.0757,-0.0758,-0.0754,-0.0766,-0.0763,-0.0756,-0.0747,-0.0762,-0.0767,-0.0769,-0.074,-0.0739,-0.0739,-0.0739,0,0,-0.0716,-0.0724,-0.0718,-0.0724,-0.0725,-0.0715,-0.0724,-0.0724,-0.0725,-0.0725,-0.072,-0.0726,-0.0726,-0.0735,-0.0739,-0.074,-0.0741,-0.0737,-0.0755,-0.0757,-0.0759,-0.0764,-0.0766,-0.0738,-0.0738,-0.0738,-0.0738,0,-0.0703,-0.0703,-0.0712,-0.0712,-0.0712,-0.0708,-0.071,-0.0709,-0.0707,-0.0715,-0.0707,-0.071,-0.0717,-0.0716,-0.0717,-0.0735,-0.0729,-0.0736,-0.0748,-0.0753,-0.0755,-0.0757,-0.0763,-0.0765,-0.0738,-0.0738,-0.0738,0,-0.0681,-0.068,-0.0684,-0.0688,-0.0688,-0.0693,-0.0682,-0.0688,-0.0692,-0.0681,-0.0689,-0.0688,-0.0688,-0.0698,-0.0702,-0.0697,-0.0719,-0.0711,-0.0713,-0.0714,-0.0718,-0.072,-0.0723,-0.0692,-0.0692,-0.0692,0,0,-0.0671,-0.0676,-0.0673,-0.0685,-0.0685,-0.0681,-0.0684,-0.068,-0.068,-0.068,-0.0679,-0.0679,-0.0683,-0.0685,-0.0689,-0.0701,-0.07,-0.0706,-0.0708,-0.071,-0.0712,-0.0716,-0.0719,-0.0691,-0.0691,-0.0691,0,0,-0.0666,-0.0663,-0.0658,-0.0671,-0.0672,-0.067,-0.0677,-0.0672,-0.0674,-0.0673,-0.0667,-0.0667,-0.0676,-0.0675,-0.0669,-0.0685,-0.0676,-0.0678,-0.0686,-0.0689,-0.0691,-0.0691,-0.0658,0,0,0,0,0,-0.065,-0.0663,-0.0659,-0.066,-0.0666,-0.0672,-0.0673,-0.0668,-0.0661,-0.0667,-0.0665,-0.0659,-0.067,-0.0664,-0.0666,-0.0673,-0.0685,-0.0686,-0.0687,-0.0701,-0.0703,-0.0706,0,0,0,0,0,0,-0.0651,-0.0653,-0.0659,-0.0658,-0.0659,-0.0672,-0.0659,-0.0658,-0.0661,-0.0659,-0.0659,-0.0659,-0.0655,-0.0663,-0.0665,-0.0672,-0.0657,-0.0685,-0.0686,-0.0687,-0.0702,-0.0704,-0.0706,0,0,0,0,0,-0.0651,-0.0653,-0.0663,-0.0657,-0.0658,-0.0655,-0.0659,-0.0658,-0.066,-0.0657,-0.0656,-0.0656,-0.0655,-0.0656,-0.0664,-0.0671,-0.0656,-0.0657,-0.0686,-0.0687,-0.0688,-0.0703,0,0,0,0,0,0,-0.0652,-0.0652,-0.0663,-0.0663,-0.0653,-0.0654,-0.0654,-0.0658,-0.0657,-0.0656,-0.0654,-0.0653,-0.0655,-0.0656,-0.0656,-0.0672,-0.0656,-0.0656,-0.0657,-0.0687,-0.0687,-0.0688,0,0,0,0,0,0,-0.0651,-0.0652,-0.0663,-0.0658,-0.0657,-0.0653,-0.0653,-0.066,-0.0657,-0.0654,-0.0653,-0.0653,-0.0654,-0.0656,-0.0656,-0.0667,-0.0655,-0.0656,-0.0656,-0.0656,-0.0687,-0.0688,0,0,0,0,0,0,-0.0651,-0.0652,-0.0658,-0.0657,-0.0657,-0.0658,-0.0659,-0.0665,-0.0652,-0.0654,-0.0651,-0.0651,-0.0655,-0.0655,-0.0656,-0.0667,-0.0667,-0.0655,-0.0655,-0.0656,-0.0656,0,0,0,0,0,0,0,-0.0651,-0.0647,-0.0663,-0.0657,-0.0656,-0.0664,-0.0664,-0.0664,-0.0652,-0.0652,-0.0651,-0.0651,-0.0652,-0.0653,-0.0653,-0.0667,0,0,-0.0655,-0.0655,0,0,0,0,0,0,0,0,-0.0647,-0.0647,-0.0663,-0.0663,-0.0663,-0.0664,-0.0664,-0.0664,-0.0652,-0.0652,-0.0651,-0.0651,-0.0653,-0.0653,-0.0653,0,0,0,0,0,0,0,0,0,0,0,0,0,0,0,-0.0663,-0.0663,0,-0.0664,-0.0664,-0.0664,-0.0652,-0.0652,-0.0651,-0.0651,-0.0653,-0.0653,-0.0653,0,0,0,0,0,0,0,0,0,0,0,0,0,0,0,0,0,0,0,0,0,0,0,0,0,0,0,0,0,0,0,0,0,0,0,0,0,0,0,0,0,0,0,0,0,0,0,0,0,0,0,0,0,0,0,0,0,0,0,0,0,0,0,0,0,0,0,0,0]}],[{"header":{"parameterUnit":"kt","parameterCategory":2,"dx":1,"dy":1,"la1":30.253999710083008,"la2":30.299108505249023,"lo1":-89.0895004272461,"lo2":-89.04439544677734,"nx":28,"ny":28,"refTime":"2022-10-25T21:00:00:Z","depth":0,"parameterNumber":2,"parameterNumberName":"V-component_of_WINDS"},"data":[-12.5279,-12.5452,-12.5475,-12.5681,-12.5735,-12.5878,-12.5936,-12.6012,-12.6076,-12.6245,-12.6345,-12.638,-12.6449,-12.657,-12.6675,-12.6687,-12.6731,-12.6778,-12.6784,-12.6561,-12.6531,-12.6503,-12.6466,-12.6787,-12.6787,-12.7013,-12.7015,-12.7016,-12.5118,-12.5176,-12.5291,-12.5418,-12.5516,-12.5486,-12.5581,-12.5664,-12.5791,-12.5871,-12.597,-12.6118,-12.6235,-12.6288,-12.6403,-12.6479,-12.6469,-12.6509,-12.6504,-12.6515,-12.6277,-12.6238,-12.6516,-12.6516,-12.6515,-12.6515,-12.6515,-12.6515,-12.483,-12.4932,-12.5023,-12.5147,-12.5216,-12.5299,-12.5398,-12.5442,-12.5551,-12.5678,-12.5678,-12.5819,-12.5899,-12.6044,-12.6096,-12.6204,-12.6162,-12.621,-12.6223,-12.6235,-12.6248,-12.5923,-12.6223,-12.6223,-12.6222,-12.6221,-12.6221,0,-12.4626,-12.4639,-12.475,-12.4869,-12.496,-12.5052,-12.5139,-12.52,-12.5226,-12.5314,-12.5443,-12.552,-12.5669,-12.5789,-12.5899,-12.5942,-12.5915,-12.5912,-12.5946,-12.595,-12.5941,-12.5949,-12.5562,-12.5903,-12.59,-12.5899,-12.5897,-12.5896,-12.4339,-12.4454,-12.4557,-12.4632,-12.4685,-12.4805,-12.4879,-12.4894,-12.4971,-12.5077,-12.5163,-12.5284,-12.5382,-12.5579,-12.5621,-12.573,-12.5717,-12.5846,-12.5733,-12.5733,-12.5721,-12.5715,-12.5727,-12.5868,-12.5871,-12.5874,-12.5877,0,-12.4175,-12.421,-12.4394,-12.4483,-12.4508,-12.4627,-12.47,-12.4799,-12.4828,-12.4967,-12.5,-12.5043,-12.5166,-12.5188,-12.533,-12.5337,-12.5528,-12.5511,-12.5502,-12.55,-12.5618,-12.5608,-12.5996,-12.6048,-12.5714,-12.5717,-12.572,0,-12.3943,-12.4092,-12.4135,-12.424,-12.4406,-12.4416,-12.4579,-12.4619,-12.4689,-12.4799,-12.4773,-12.4875,-12.4886,-12.4991,-12.5001,-12.516,-12.5186,-12.52,-12.5201,-12.5204,-12.5203,-12.5243,-12.5228,-12.5197,-12.5195,-12.5193,-12.5191,0,-12.3685,-12.388,-12.4051,-12.41,-12.4207,-12.4286,-12.4333,-12.441,-12.4482,-12.4576,-12.4622,-12.473,-12.4789,-12.4872,-12.4884,-12.4807,-12.5079,-12.4975,-12.5094,-12.5094,-12.5152,-12.5149,-12.5488,-12.5189,-12.5188,-12.5188,-12.5187,0,-12.3502,-12.3604,-12.3845,-12.3933,-12.3983,-12.4093,-12.4204,-12.4303,-12.4386,-12.4401,-12.4474,-12.4458,-12.4598,-12.4494,-12.4687,-12.4584,-12.4642,-12.4669,-12.4678,-12.4692,-12.4575,-12.4765,-12.5085,-12.512,-12.4704,-12.4701,-12.4697,0,-12.3198,-12.3449,-12.3461,-12.3688,-12.3807,-12.3773,-12.3894,-12.3968,-12.3998,-12.4101,-12.4131,-12.4246,-12.4173,-12.4212,-12.4304,-12.4339,-12.4473,-12.4321,-12.4465,-12.447,-12.4447,-12.4742,-12.4786,-12.5013,-12.4646,-12.4651,-12.4655,0,-12.2966,-12.3096,-12.3136,-12.3193,-12.3295,-12.3393,-12.3532,-12.365,-12.3719,-12.3803,-12.3919,-12.4079,-12.4031,-12.4094,-12.4091,-12.4186,-12.4383,-12.412,-12.4122,-12.4168,-12.4621,-12.4662,-12.47,-12.4359,-12.4365,-12.437,-12.4614,0,-12.2686,-12.2815,-12.2923,-12.3048,-12.3127,-12.3268,-12.3295,-12.3373,-12.3365,-12.3393,-12.3562,-12.3624,-12.3739,-12.3786,-12.3776,-12.3988,-12.3955,-12.3901,-12.3801,-12.3994,-12.4075,-12.4108,-12.3679,-12.3676,-12.3674,-12.3672,0,0,-12.2387,-12.2572,-12.2579,-12.2716,-12.2783,-12.2743,-12.2893,-12.2952,-12.3072,-12.3118,-12.3063,-12.3298,-12.335,-12.3552,-12.3614,-12.366,-12.3699,-12.363,-12.3902,-12.3927,-12.3951,-12.4037,-12.4071,-12.3668,-12.3667,-12.3666,-12.3665,0,-12.229,-12.2352,-12.2501,-12.2564,-12.2658,-12.2681,-12.2716,-12.28,-12.2825,-12.299,-12.2951,-12.3054,-12.324,-12.3301,-12.3357,-12.3607,-12.357,-12.3639,-12.3768,-12.3877,-12.3906,-12.3931,-12.4022,-12.4054,-12.3659,-12.366,-12.366,0,-12.2068,-12.2132,-12.2207,-12.2358,-12.2418,-12.2539,-12.2442,-12.2573,-12.2662,-12.2606,-12.277,-12.2807,-12.2889,-12.3077,-12.3161,-12.3112,-12.3451,-12.3346,-12.3362,-12.3372,-12.3478,-12.3512,-12.3543,-12.3138,-12.3136,-12.3134,0,0,-12.198,-12.21,-12.2171,-12.2339,-12.238,-12.2415,-12.2481,-12.2479,-12.2557,-12.2587,-12.2634,-12.2708,-12.2816,-12.2887,-12.2988,-12.319,-12.3208,-12.3282,-12.3306,-12.3326,-12.3347,-12.3458,-12.3492,-12.3127,-12.3127,-12.3127,0,0,-12.1937,-12.2028,-12.2007,-12.2206,-12.2283,-12.2361,-12.2462,-12.2436,-12.2531,-12.2517,-12.2514,-12.2534,-12.2709,-12.2745,-12.2648,-12.2953,-12.2853,-12.2877,-12.2923,-12.2954,-12.2978,-12.2966,-12.2554,0,0,0,0,0,-12.1852,-12.2017,-12.1997,-12.2034,-12.2222,-12.2374,-12.2397,-12.2402,-12.2333,-12.2413,-12.2448,-12.2403,-12.2693,-12.2607,-12.2641,-12.2749,-12.3036,-12.3052,-12.3067,-12.3174,-12.3207,-12.3234,0,0,0,0,0,0,-12.1867,-12.1912,-12.1993,-12.2078,-12.212,-12.2368,-12.2252,-12.2258,-12.2325,-12.2314,-12.2398,-12.2406,-12.241,-12.2589,-12.262,-12.2723,-12.2543,-12.3042,-12.3056,-12.3068,-12.3186,-12.3212,-12.3235,0,0,0,0,0,-12.1878,-12.1915,-12.2216,-12.2075,-12.2112,-12.2159,-12.2246,-12.225,-12.2301,-12.2355,-12.2361,-12.2299,-12.2413,-12.2439,-12.2608,-12.2709,-12.2522,-12.2533,-12.3051,-12.3062,-12.3072,-12.3199,0,0,0,0,0,0,-12.1887,-12.1918,-12.2223,-12.2235,-12.2014,-12.2145,-12.2166,-12.2243,-12.2336,-12.2345,-12.2254,-12.2245,-12.2417,-12.2436,-12.2457,-12.2704,-12.2504,-12.2516,-12.2523,-12.3059,-12.3068,-12.3075,0,0,0,0,0,0,-12.1898,-12.1928,-12.2229,-12.2151,-12.2153,-12.2132,-12.2151,-12.2293,-12.2338,-12.223,-12.2226,-12.2249,-12.2384,-12.2436,-12.2451,-12.2673,-12.249,-12.2502,-12.251,-12.2515,-12.3066,-12.3073,0,0,0,0,0,0,-12.1911,-12.1936,-12.2148,-12.215,-12.2151,-12.2277,-12.2257,-12.2448,-12.2276,-12.2226,-12.226,-12.2252,-12.2385,-12.24,-12.2448,-12.2663,-12.267,-12.2491,-12.2499,-12.2504,-12.2508,0,0,0,0,0,0,0,-12.1921,-12.1751,-12.2158,-12.2149,-12.215,-12.2338,-12.2341,-12.2344,-12.2274,-12.2268,-12.2261,-12.2256,-12.2426,-12.2438,-12.2451,-12.2655,0,0,-12.249,-12.2495,0,0,0,0,0,0,0,0,-12.174,-12.1748,-12.2158,-12.216,-12.2163,-12.2339,-12.2341,-12.2344,-12.2273,-12.2268,-12.2263,-12.2258,-12.2429,-12.2439,-12.2449,0,0,0,0,0,0,0,0,0,0,0,0,0,0,0,-12.2158,-12.216,0,-12.2339,-12.2341,-12.2343,-12.2272,-12.2268,-12.2264,-12.226,-12.2432,-12.244,-12.2449,0,0,0,0,0,0,0,0,0,0,0,0,0,0,0,0,0,0,0,0,0,0,0,0,0,0,0,0,0,0,0,0,0,0,0,0,0,0,0,0,0,0,0,0,0,0,0,0,0,0,0,0,0,0,0,0,0,0,0,0,0,0,0,0,0,0,0,0,0]}]]]